Time,TemperatureF,DewpointF,PressureIn,WindDirection,WindDirectionDegrees,WindSpeedMPH,WindSpeedGustMPH,Humidity,HourlyPrecipIn,Conditions,Clouds,dailyrainin,SoftwareType,DateUTC
2013-03-20 00:03:00,22.0,20.0,-100.00,NNW,340,4.0,7.0,94,0.13,,,-99.99,,2013-03-20 04:03:00,
2013-03-20 00:12:00,22.0,20.0,-100.00,NW,305,2.0,6.0,94,0.14,,,-99.99,,2013-03-20 04:12:00,
2013-03-20 00:23:00,22.0,20.0,-100.00,NNW,330,2.0,6.0,94,0.07,,,-99.99,,2013-03-20 04:23:00,
2013-03-20 00:32:00,22.0,20.0,-100.00,NNW,330,3.0,6.0,95,0.11,,,-99.99,,2013-03-20 04:32:00,
2013-03-20 00:43:00,22.0,20.0,-100.00,NW,320,2.0,4.0,95,0.06,,,-99.99,,2013-03-20 04:43:00,
2013-03-20 00:52:00,22.0,21.0,-100.00,NW,320,2.0,3.0,95,0.16,,,-99.99,,2013-03-20 04:52:00,
2013-03-20 01:02:00,22.0,21.0,-100.00,NW,325,2.0,4.0,95,0.30,,,-99.99,,2013-03-20 05:02:00,
2013-03-20 01:12:00,22.0,21.0,-100.00,WNW,285,1.0,2.0,95,0.04,,,-99.99,,2013-03-20 05:12:00,
2013-03-20 01:23:00,22.0,21.0,-100.00,NW,315,1.0,2.0,95,0.10,,,-99.99,,2013-03-20 05:23:00,
2013-03-20 01:32:00,22.0,21.0,-100.00,NNW,340,2.0,4.0,95,0.07,,,-99.99,,2013-03-20 05:32:00,
2013-03-20 01:42:00,22.0,21.0,-100.00,NNW,335,1.0,4.0,95,0.07,,,-99.99,,2013-03-20 05:42:00,
2013-03-20 01:52:00,22.0,20.0,-100.00,WNW,290,1.0,1.0,94,0.06,,,-99.99,,2013-03-20 05:52:00,
2013-03-20 02:03:00,22.0,20.0,-100.00,NE,50,0.0,2.0,94,0.01,,,-99.99,,2013-03-20 06:03:00,
2013-03-20 02:12:00,21.0,20.0,-100.00,ENE,75,0.0,1.0,94,0.00,,,-99.99,,2013-03-20 06:12:00,
2013-03-20 02:22:00,21.0,20.0,-100.00,SE,135,0.0,1.0,94,0.00,,,-99.99,,2013-03-20 06:22:00,
2013-03-20 02:32:00,21.0,20.0,-100.00,WNW,300,0.0,1.0,94,0.00,,,-99.99,,2013-03-20 06:32:00,
2013-03-20 02:42:00,21.0,20.0,-100.00,North,350,0.0,1.0,94,0.00,,,-99.99,,2013-03-20 06:42:00,
2013-03-20 02:52:00,21.0,20.0,-100.00,NW,325,0.0,4.0,94,0.00,,,-99.99,,2013-03-20 06:52:00,
2013-03-20 03:02:00,21.0,20.0,-100.00,NW,325,0.0,4.0,94,0.00,,,-99.99,,2013-03-20 07:02:00,
2013-03-20 03:12:00,21.0,20.0,-100.00,NW,325,0.0,4.0,94,0.00,,,-99.99,,2013-03-20 07:12:00,
2013-03-20 03:22:00,21.0,20.0,-100.00,SW,215,0.0,3.0,94,0.00,,,-99.99,,2013-03-20 07:22:00,
2013-03-20 03:32:00,21.0,20.0,-100.00,SW,215,1.0,1.0,94,0.00,,,-99.99,,2013-03-20 07:32:00,
2013-03-20 03:42:00,21.0,20.0,-100.00,ESE,115,1.0,2.0,94,0.00,,,-99.99,,2013-03-20 07:42:00,
2013-03-20 03:52:00,21.0,20.0,-100.00,East,80,0.0,2.0,94,0.00,,,-99.99,,2013-03-20 07:52:00,
2013-03-20 04:02:00,21.0,20.0,-100.00,North,5,0.0,1.0,94,0.00,,,-99.99,,2013-03-20 08:02:00,
2013-03-20 04:12:00,21.0,20.0,-100.00,SW,225,0.0,1.0,94,0.00,,,-99.99,,2013-03-20 08:12:00,
2013-03-20 04:22:00,21.0,20.0,-100.00,South,175,1.0,2.0,94,0.00,,,-99.99,,2013-03-20 08:22:00,
2013-03-20 04:32:00,22.0,20.0,-100.00,ENE,75,0.0,1.0,94,0.00,,,-99.99,,2013-03-20 08:32:00,
2013-03-20 04:42:00,22.0,20.0,-100.00,SE,125,0.0,1.0,94,0.00,,,-99.99,,2013-03-20 08:42:00,
2013-03-20 04:52:00,22.0,20.0,-100.00,East,95,0.0,1.0,94,0.01,,,-99.99,,2013-03-20 08:52:00,
2013-03-20 05:02:00,22.0,20.0,-100.00,WSW,245,0.0,1.0,94,0.00,,,-99.99,,2013-03-20 09:02:00,
2013-03-20 05:12:00,22.0,20.0,-100.00,ENE,60,0.0,1.0,94,0.00,,,-99.99,,2013-03-20 09:12:00,
2013-03-20 05:22:00,22.0,20.0,-100.00,North,350,0.0,2.0,94,0.00,,,-99.99,,2013-03-20 09:22:00,
2013-03-20 05:33:00,22.0,21.0,-100.00,North,0,1.0,2.0,94,0.01,,,-99.99,,2013-03-20 09:33:00,
2013-03-20 05:43:00,22.0,21.0,-100.00,North,0,0.0,2.0,94,0.01,,,-99.99,,2013-03-20 09:43:00,
2013-03-20 05:52:00,22.0,21.0,-100.00,NNW,345,1.0,3.0,94,0.00,,,-99.99,,2013-03-20 09:52:00,
2013-03-20 06:03:00,22.0,21.0,-100.00,NNW,340,1.0,2.0,94,0.01,,,-99.99,,2013-03-20 10:03:00,
2013-03-20 06:12:00,22.0,21.0,-100.00,NNE,15,1.0,2.0,95,0.00,,,-99.99,,2013-03-20 10:12:00,
2013-03-20 06:23:00,22.0,21.0,-100.00,North,350,2.0,3.0,95,0.00,,,-99.99,,2013-03-20 10:23:00,
2013-03-20 06:33:00,22.0,21.0,-100.00,WNW,295,0.0,2.0,95,0.01,,,-99.99,,2013-03-20 10:33:00,
2013-03-20 06:42:00,22.0,21.0,-100.00,South,170,0.0,4.0,95,0.03,,,-99.99,,2013-03-20 10:42:00,
2013-03-20 06:52:00,22.0,21.0,-100.00,North,350,0.0,1.0,95,0.03,,,-99.99,,2013-03-20 10:52:00,
2013-03-20 07:03:00,22.0,21.0,-100.00,NNW,345,1.0,4.0,95,0.07,,,-99.99,,2013-03-20 11:03:00,
2013-03-20 07:12:00,23.0,22.0,-100.00,NNW,335,3.0,4.0,95,0.01,,,-99.99,,2013-03-20 11:12:00,
2013-03-20 07:22:00,23.0,22.0,-100.00,NNW,345,3.0,6.0,95,0.01,,,-99.99,,2013-03-20 11:22:00,
2013-03-20 07:32:00,23.0,22.0,-100.00,North,350,2.0,6.0,95,0.00,,,-99.99,,2013-03-20 11:32:00,
2013-03-20 07:42:00,23.0,22.0,-100.00,North,350,3.0,6.0,95,0.00,,,-99.99,,2013-03-20 11:42:00,
2013-03-20 07:52:00,23.0,22.0,-100.00,North,355,2.0,6.0,95,0.00,,,-99.99,,2013-03-20 11:52:00,
2013-03-20 08:02:00,23.0,22.0,-100.00,NNW,345,4.0,7.0,95,0.00,,,-99.99,,2013-03-20 12:02:00,
2013-03-20 08:12:00,23.0,22.0,-100.00,NNW,345,4.0,9.0,95,0.00,,,-99.99,,2013-03-20 12:12:00,
2013-03-20 08:22:00,23.0,22.0,-100.00,NNW,345,4.0,7.0,95,0.00,,,-99.99,,2013-03-20 12:22:00,
2013-03-20 08:32:00,23.0,22.0,-100.00,NNW,340,4.0,9.0,95,0.00,,,-99.99,,2013-03-20 12:32:00,
2013-03-20 08:42:00,23.0,22.0,-100.00,NNW,330,5.0,11.0,95,0.00,,,-99.99,,2013-03-20 12:42:00,
2013-03-20 08:52:00,24.0,23.0,-100.00,NNW,345,5.0,8.0,96,0.00,,,-99.99,,2013-03-20 12:52:00,
2013-03-20 09:03:00,24.0,23.0,-100.00,NNW,340,4.0,8.0,96,0.00,,,-99.99,,2013-03-20 13:03:00,
2013-03-20 09:12:00,24.0,23.0,-100.00,North,350,7.0,11.0,96,0.00,,,-99.99,,2013-03-20 13:12:00,
2013-03-20 09:22:00,24.0,23.0,-100.00,North,350,7.0,11.0,96,0.00,,,-99.99,,2013-03-20 13:22:00,
2013-03-20 09:32:00,24.0,23.0,-100.00,North,350,7.0,10.0,96,0.00,,,-99.99,,2013-03-20 13:32:00,
2013-03-20 09:42:00,24.0,23.0,-100.00,North,350,9.0,14.0,96,0.00,,,-99.99,,2013-03-20 13:42:00,
2013-03-20 09:52:00,25.0,24.0,-100.00,NNW,345,6.0,12.0,95,0.00,,,-99.99,,2013-03-20 13:52:00,
2013-03-20 10:03:00,25.0,24.0,-100.00,NNW,345,6.0,11.0,93,0.00,,,-99.99,,2013-03-20 14:03:00,
2013-03-20 10:12:00,26.0,23.0,-100.00,NNW,340,6.0,13.0,89,0.00,,,-99.99,,2013-03-20 14:12:00,
2013-03-20 10:23:00,26.0,22.0,-100.00,NNW,335,6.0,13.0,85,0.00,,,-99.99,,2013-03-20 14:23:00,
2013-03-20 10:33:00,27.0,21.0,-100.00,North,350,7.0,17.0,78,0.00,,,-99.99,,2013-03-20 14:33:00,
2013-03-20 10:42:00,27.0,20.0,-100.00,North,355,9.0,14.0,76,0.00,,,-99.99,,2013-03-20 14:42:00,
2013-03-20 10:52:00,27.0,19.0,-100.00,NNW,345,10.0,16.0,72,0.00,,,-99.99,,2013-03-20 14:52:00,
2013-03-20 11:02:00,27.0,18.0,-100.00,NNW,345,9.0,16.0,70,0.00,,,-99.99,,2013-03-20 15:02:00,
2013-03-20 11:12:00,26.0,17.0,-100.00,NNW,335,7.0,16.0,68,0.00,,,-99.99,,2013-03-20 15:12:00,
2013-03-20 11:22:00,27.0,17.0,-100.00,North,350,10.0,17.0,64,0.00,,,-99.99,,2013-03-20 15:22:00,
2013-03-20 11:33:00,27.0,17.0,-100.00,NNW,340,11.0,16.0,65,0.00,,,-99.99,,2013-03-20 15:33:00,
2013-03-20 11:43:00,27.0,17.0,-100.00,NNW,345,8.0,17.0,64,0.00,,,-99.99,,2013-03-20 15:43:00,
2013-03-20 11:52:00,27.0,17.0,-100.00,NNW,345,9.0,15.0,66,0.00,,,-99.99,,2013-03-20 15:52:00,
2013-03-20 12:03:00,27.0,17.0,-100.00,North,350,7.0,14.0,65,0.00,,,-99.99,,2013-03-20 16:03:00,
2013-03-20 12:23:00,27.0,16.0,-100.00,NNW,345,10.0,19.0,62,0.00,,,-99.99,,2013-03-20 16:23:00,
2013-03-20 12:33:00,27.0,17.0,-100.00,North,350,7.0,18.0,63,0.00,,,-99.99,,2013-03-20 16:33:00,
2013-03-20 12:43:00,29.0,16.0,-100.00,NNW,345,7.0,17.0,59,0.00,,,-99.99,,2013-03-20 16:43:00,
2013-03-20 12:52:00,29.0,15.0,-100.00,NNW,345,8.0,16.0,56,0.00,,,-99.99,,2013-03-20 16:52:00,
2013-03-20 13:03:00,29.0,16.0,-100.00,North,350,7.0,17.0,57,0.00,,,-99.99,,2013-03-20 17:03:00,
2013-03-20 13:12:00,29.0,16.0,-100.00,North,350,7.0,17.0,57,0.00,,,-99.99,,2013-03-20 17:12:00,
2013-03-20 13:22:00,29.0,16.0,-100.00,North,0,6.0,14.0,57,0.00,,,-99.99,,2013-03-20 17:22:00,
2013-03-20 13:32:00,30.0,17.0,-100.00,NW,320,4.0,17.0,58,0.00,,,-99.99,,2013-03-20 17:32:00,
2013-03-20 13:42:00,30.0,15.0,-100.00,North,350,9.0,14.0,52,0.00,,,-99.99,,2013-03-20 17:42:00,
2013-03-20 13:53:00,31.0,16.0,-100.00,NNW,340,6.0,14.0,53,0.00,,,-99.99,,2013-03-20 17:53:00,
2013-03-20 14:02:00,31.0,17.0,-100.00,North,350,5.0,14.0,56,0.00,,,-99.99,,2013-03-20 18:02:00,
2013-03-20 14:12:00,32.0,16.0,-100.00,NNW,335,4.0,14.0,52,0.00,,,-99.99,,2013-03-20 18:12:00,
2013-03-20 14:22:00,31.0,15.0,-100.00,North,355,9.0,17.0,51,0.00,,,-99.99,,2013-03-20 18:22:00,
2013-03-20 14:33:00,31.0,16.0,-100.00,NNW,330,5.0,16.0,52,0.00,,,-99.99,,2013-03-20 18:33:00,
2013-03-20 14:42:00,31.0,17.0,-100.00,NNW,345,6.0,10.0,53,0.00,,,-99.99,,2013-03-20 18:42:00,
2013-03-20 14:52:00,32.0,16.0,-100.00,NNW,345,7.0,17.0,52,0.00,,,-99.99,,2013-03-20 18:52:00,
2013-03-20 15:02:00,33.0,17.0,-100.00,North,350,4.0,13.0,51,0.00,,,-99.99,,2013-03-20 19:02:00,
2013-03-20 15:12:00,33.0,17.0,-100.00,NNW,340,9.0,14.0,51,0.00,,,-99.99,,2013-03-20 19:12:00,
2013-03-20 15:22:00,32.0,15.0,-100.00,North,350,11.0,19.0,50,0.00,,,-99.99,,2013-03-20 19:22:00,
2013-03-20 15:32:00,33.0,16.0,-100.00,North,350,5.0,12.0,49,0.00,,,-99.99,,2013-03-20 19:32:00,
2013-03-20 15:42:00,33.0,17.0,-100.00,North,0,5.0,11.0,50,0.00,,,-99.99,,2013-03-20 19:42:00,
2013-03-20 15:52:00,33.0,16.0,-100.00,North,350,5.0,11.0,50,0.00,,,-99.99,,2013-03-20 19:52:00,
2013-03-20 16:02:00,33.0,16.0,-100.00,North,355,4.0,9.0,50,0.00,,,-99.99,,2013-03-20 20:02:00,
2013-03-20 16:13:00,33.0,18.0,-100.00,NNE,20,4.0,9.0,53,0.00,,,-99.99,,2013-03-20 20:13:00,
2013-03-20 16:22:00,32.0,18.0,-100.00,North,10,3.0,10.0,54,0.00,,,-99.99,,2013-03-20 20:22:00,
2013-03-20 16:32:00,32.0,18.0,-100.00,North,0,7.0,13.0,57,0.00,,,-99.99,,2013-03-20 20:32:00,
2013-03-20 16:42:00,32.0,19.0,-100.00,North,0,4.0,12.0,57,0.00,,,-99.99,,2013-03-20 20:42:00,
2013-03-20 16:52:00,32.0,19.0,-100.00,North,355,6.0,12.0,57,0.00,,,-99.99,,2013-03-20 20:52:00,
2013-03-20 17:02:00,32.0,19.0,-100.00,North,10,4.0,16.0,57,0.00,,,-99.99,,2013-03-20 21:02:00,
2013-03-20 17:12:00,32.0,18.0,-100.00,NNW,335,6.0,13.0,56,0.00,,,-99.99,,2013-03-20 21:12:00,
2013-03-20 17:22:00,32.0,18.0,-100.00,North,0,6.0,12.0,56,0.00,,,-99.99,,2013-03-20 21:22:00,
2013-03-20 17:33:00,32.0,18.0,-100.00,North,10,5.0,11.0,55,0.00,,,-99.99,,2013-03-20 21:33:00,
2013-03-20 17:42:00,32.0,18.0,-100.00,North,350,3.0,14.0,57,0.00,,,-99.99,,2013-03-20 21:42:00,
2013-03-20 17:52:00,31.0,19.0,-100.00,NNE,25,2.0,12.0,58,0.00,,,-99.99,,2013-03-20 21:52:00,
2013-03-20 18:03:00,32.0,19.0,-100.00,North,0,3.0,12.0,58,0.00,,,-99.99,,2013-03-20 22:03:00,
2013-03-20 18:12:00,32.0,18.0,-100.00,North,5,4.0,11.0,57,0.00,,,-99.99,,2013-03-20 22:12:00,
2013-03-20 18:23:00,31.0,19.0,-100.00,North,350,4.0,12.0,60,0.00,,,-99.99,,2013-03-20 22:23:00,
2013-03-20 18:33:00,31.0,18.0,-100.00,NNE,20,6.0,14.0,56,0.00,,,-99.99,,2013-03-20 22:33:00,
2013-03-20 18:42:00,31.0,18.0,-100.00,North,0,6.0,11.0,57,0.00,,,-99.99,,2013-03-20 22:42:00,
2013-03-20 18:52:00,30.0,18.0,-100.00,North,0,4.0,9.0,58,0.00,,,-99.99,,2013-03-20 22:52:00,
2013-03-20 19:02:00,30.0,18.0,-100.00,North,0,4.0,7.0,60,0.00,,,-99.99,,2013-03-20 23:02:00,
2013-03-20 19:12:00,30.0,17.0,-100.00,North,0,4.0,9.0,59,0.00,,,-99.99,,2013-03-20 23:12:00,
2013-03-20 19:22:00,29.0,18.0,-100.00,North,355,4.0,7.0,61,0.00,,,-99.99,,2013-03-20 23:22:00,
2013-03-20 19:32:00,28.0,18.0,-100.00,North,10,2.0,6.0,64,0.00,,,-99.99,,2013-03-20 23:32:00,
2013-03-20 19:42:00,29.0,17.0,-100.00,North,0,4.0,7.0,60,0.00,,,-99.99,,2013-03-20 23:42:00,
2013-03-20 19:52:00,29.0,17.0,-100.00,North,10,2.0,6.0,60,0.00,,,-99.99,,2013-03-20 23:52:00,
2013-03-20 20:03:00,29.0,17.0,-100.00,NW,320,1.0,6.0,61,0.00,,,-99.99,,2013-03-21 00:03:00,
2013-03-20 20:12:00,29.0,17.0,-100.00,NNE,15,2.0,6.0,59,0.00,,,-99.99,,2013-03-21 00:12:00,
2013-03-20 20:23:00,28.0,17.0,-100.00,East,100,1.0,6.0,62,0.00,,,-99.99,,2013-03-21 00:23:00,
2013-03-20 20:33:00,28.0,16.0,-100.00,North,5,2.0,7.0,61,0.00,,,-99.99,,2013-03-21 00:33:00,
2013-03-20 20:42:00,27.0,17.0,-100.00,North,0,2.0,6.0,65,0.00,,,-99.99,,2013-03-21 00:42:00,
2013-03-20 20:52:00,27.0,17.0,-100.00,NNW,335,2.0,4.0,66,0.00,,,-99.99,,2013-03-21 00:52:00,
2013-03-20 21:02:00,26.0,18.0,-100.00,North,350,1.0,4.0,69,0.00,,,-99.99,,2013-03-21 01:02:00,
2013-03-20 21:12:00,26.0,18.0,-100.00,NNW,330,1.0,2.0,71,0.00,,,-99.99,,2013-03-21 01:12:00,
2013-03-20 21:22:00,25.0,18.0,-100.00,NNW,330,1.0,4.0,73,0.00,,,-99.99,,2013-03-21 01:22:00,
2013-03-20 21:32:00,25.0,18.0,-100.00,South,185,0.0,2.0,73,0.00,,,-99.99,,2013-03-21 01:32:00,
2013-03-20 21:42:00,24.0,17.0,-100.00,NW,320,0.0,2.0,74,0.00,,,-99.99,,2013-03-21 01:42:00,
2013-03-20 21:52:00,24.0,17.0,-100.00,West,275,0.0,1.0,75,0.00,,,-99.99,,2013-03-21 01:52:00,
2013-03-20 22:02:00,23.0,17.0,-100.00,North,355,1.0,4.0,75,0.00,,,-99.99,,2013-03-21 02:02:00,
2013-03-20 22:12:00,23.0,16.0,-100.00,East,95,0.0,2.0,76,0.00,,,-99.99,,2013-03-21 02:12:00,
2013-03-20 22:22:00,22.0,16.0,-100.00,SSE,165,1.0,3.0,76,0.00,,,-99.99,,2013-03-21 02:22:00,
2013-03-20 22:33:00,22.0,16.0,-100.00,NW,320,1.0,2.0,77,0.00,,,-99.99,,2013-03-21 02:33:00,
2013-03-20 22:42:00,22.0,16.0,-100.00,NW,320,1.0,2.0,77,0.00,,,-99.99,,2013-03-21 02:42:00,
2013-03-20 22:52:00,22.0,16.0,-100.00,NW,320,1.0,2.0,77,0.00,,,-99.99,,2013-03-21 02:52:00,
2013-03-20 23:02:00,21.0,16.0,-100.00,ESE,120,0.0,1.0,78,0.00,,,-99.99,,2013-03-21 03:02:00,
2013-03-20 23:12:00,21.0,15.0,-100.00,WNW,300,0.0,2.0,79,0.00,,,-99.99,,2013-03-21 03:12:00,
2013-03-20 23:22:00,21.0,16.0,-100.00,SSW,210,0.0,2.0,80,0.00,,,-99.99,,2013-03-21 03:22:00,
2013-03-20 23:33:00,21.0,16.0,-100.00,East,80,1.0,1.0,80,0.00,,,-99.99,,2013-03-21 03:33:00,
2013-03-20 23:43:00,22.0,16.0,-100.00,ENE,65,0.0,1.0,80,0.00,,,-99.99,,2013-03-21 03:43:00,
2013-03-20 23:53:00,21.0,16.0,-100.00,SSE,155,0.0,1.0,80,0.00,,,-99.99,,2013-03-21 03:53:00,